Santa Barbara, CA

9:32 AM PDT on August 20, 2017 (GMT -0700)
Santa Barbara Municipal

Weather History for KSBA - September, 2013

Change the Weather History Date:

Saturday, September 7, 2013

  Actual Average Record
Temperature  
Mean Temperature 68 °F 66 °F  
Max Temperature 77 °F 75 °F 93 °F (1955)
Min Temperature 58 °F 57 °F 47 °F (2002)
Degree Days  
Heating Degree Days 0 1  
Month to date heating degree days 0 7  
Since 1 July heating degree days 30 58  
Cooling Degree Days 3 2  
Month to date cooling degree days 52 14  
Year to date cooling degree days 250 141  
Growing Degree Days 16 (Base 50)    
Moisture  
Dew Point 59 °F    
Average Humidity 76    
Maximum Humidity 93    
Minimum Humidity 58    
Precipitation  
Precipitation 0.00 in 0.00 in 0.48 in (1958)
Month to date precipitation 0.00 0.02  
Year to date precipitation 3.42 12.22  
Since 1 July precipitation 0.07  
Sea Level Pressure  
Sea Level Pressure 29.85 in    
Wind  
Wind Speed 5 mph (SSE)    
Max Wind Speed 17 mph    
Max Gust Speed -    
Visibility 8 miles    
Events      
T = Trace of Precipitation, MM = Missing Value Source: NWS Daily Summary

Daily Weather History Graph

Daily Weather History Graph

Search for Another Location

Airport or City:

Trip Planner

Search our weather history database for the weather conditions in past years. The results will help you decide how hot, cold, wet, or windy it might be!

Date:

Astronomy

Sep. 07, 2013 Rise Set
Actual Time 6:37 AM PDT 7:16 PM PDT
Civil Twilight 6:11 AM PDT 7:42 PM PDT
Nautical Twilight 5:41 AM PDT 8:12 PM PDT
Astronomical Twilight 5:11 AM PDT 8:42 PM PDT
Moon 8:48 AM PDT (9/7) 8:27 PM PDT (9/7)
Length of Visible Light 13h 30m
Length of Day
12h 39m
Waxing Crescent, 6% of the Moon is Illuminated
Sep 7
Waxing Crescent
Sep 12
First Quarter
Sep 19
Full
Sep 26
Last Quarter
Oct 4
New

Hourly Weather History & Observations

Time (PDT) Temp. Dew Point Humidity Pressure Visibility Wind Dir Wind Speed Gust Speed Precip Events Conditions
12:53 AM 64.0 °F 60.1 °F 87% 29.82 in 8.0 mi East 3.5 mph - N/A   Clear
1:53 AM 62.1 °F 59.0 °F 90% 29.82 in 8.0 mi Calm Calm - N/A   Clear
2:53 AM 62.1 °F 59.0 °F 90% 29.82 in 8.0 mi Calm Calm - N/A   Clear
3:53 AM 61.0 °F 57.9 °F 90% 29.81 in 8.0 mi Calm Calm - N/A   Clear
4:53 AM 60.1 °F 55.9 °F 86% 29.81 in 10.0 mi NNE 4.6 mph - N/A   Clear
5:53 AM 59.0 °F 55.9 °F 90% 29.83 in 9.0 mi Calm Calm - N/A   Clear
6:53 AM 57.9 °F 55.9 °F 93% 29.85 in 8.0 mi Calm Calm - N/A   Clear
7:53 AM 66.0 °F 60.1 °F 81% 29.86 in 8.0 mi Calm Calm - N/A   Clear
8:53 AM 66.9 °F 61.0 °F 81% 29.87 in 10.0 mi SE 8.1 mph - N/A   Clear
9:27 AM 66.2 °F 60.8 °F 83% 29.88 in 7.0 mi SE 8.1 mph - N/A   Partly Cloudy
9:53 AM 66.9 °F 61.0 °F 81% 29.88 in 5.0 mi SSE 8.1 mph - N/A   Haze
10:01 AM 66.2 °F 60.8 °F 83% 29.88 in 1.8 mi SSE 8.1 mph - N/A   Haze
10:07 AM 64.4 °F 60.8 °F 88% 29.88 in 0.8 mi SSE 6.9 mph - N/A   Mostly Cloudy
10:14 AM 66.2 °F 60.8 °F 83% 29.88 in 1.8 mi South 8.1 mph - N/A   Haze
10:22 AM 66.2 °F 60.8 °F 83% 29.88 in 2.0 mi SSE 6.9 mph - N/A   Haze
10:36 AM 66.2 °F 60.8 °F 83% 29.89 in 6.0 mi SSE 4.6 mph - N/A   Haze
10:50 AM 68.0 °F 60.8 °F 78% 29.89 in 10.0 mi SSE 4.6 mph - N/A   Partly Cloudy
10:53 AM 68.0 °F 61.0 °F 78% 29.89 in 10.0 mi SE 3.5 mph - N/A   Partly Cloudy
11:53 AM 75.0 °F 62.1 °F 64% 29.88 in 10.0 mi Variable 3.5 mph - N/A   Clear
12:53 PM 75.0 °F 60.1 °F 60% 29.87 in 10.0 mi WSW 10.4 mph - N/A   Clear
1:53 PM 75.0 °F 59.0 °F 57% 29.86 in 10.0 mi WSW 9.2 mph - N/A   Clear
2:53 PM 71.1 °F 59.0 °F 66% 29.83 in 10.0 mi West 16.1 mph - N/A   Clear
3:53 PM 71.1 °F 59.0 °F 66% 29.82 in 10.0 mi West 15.0 mph - N/A   Clear
4:53 PM 69.1 °F 59.0 °F 70% 29.81 in 10.0 mi West 9.2 mph - N/A   Clear
5:53 PM 68.0 °F 59.0 °F 73% 29.80 in 10.0 mi WSW 6.9 mph - N/A   Clear
6:53 PM 66.9 °F 59.0 °F 76% 29.80 in 8.0 mi SSW 3.5 mph - N/A   Partly Cloudy
7:53 PM 64.9 °F 57.9 °F 78% 29.81 in 9.0 mi ESE 3.5 mph - N/A   Partly Cloudy
8:53 PM 64.0 °F 57.9 °F 80% 29.82 in 9.0 mi East 3.5 mph - N/A   Clear
9:53 PM 64.0 °F 57.9 °F 80% 29.83 in 8.0 mi East 6.9 mph - N/A   Clear
10:53 PM 64.0 °F 59.0 °F 84% 29.84 in 8.0 mi East 4.6 mph - N/A   Clear
11:53 PM 63.0 °F 59.0 °F 87% 29.84 in 8.0 mi East 5.8 mph - N/A   Clear